SCP
2 2 2 2 2 2 2 2 2 1 1 1 0 0 0 1 1 1 1 1 1 1 1 1 1 0 1 1 1 1 1 1 1 1 1 1 1 1
2 2 2 1 1 2 2 2 2 2 1 1 1 1 1 1 1 1 1 1 1 1 1 1 0 0 0 0 1 1 1 1 1 1 1 1 1 1
2 2 2 2 2 2 2 2 2 2 2 2 2 1 1 1 1 1 1 1 1 1 1 1 1 0 0 0 0 0 0 0 0 0 1 1 1 1
3 3 2 2 2 2 2 2 2 2 3 3 2 2 2 1 1 1 1 1 1 1 1 1 1 1 0 0 0 0 0 0 0 0 0 0 1 1
4 3 3 3 3 3 3 2 2 2 2 3 3 3 3 2 2 1 1 1 1 1 1 1 1 1 0 0 0 0 0 0 0 0 0 0 0 0
4 4 4 4 4 3 3 3 3 2 2 2 2 2 3 3 3 2 2 2 2 2 2 2 2 1 1 1 0 0 0 0 0 0 0 0 0 0
4 4 4 4 4 4 4 4 3 3 3 2 2 2 2 3 3 3 3 2 2 2 2 2 2 2 2 1 1 1 0 0 0 0 0 0 0 0
2 3 3 3 4 4 4 4 3 3 3 3 3 2 2 3 3 4 4 3 2 2 2 2 2 2 2 2 1 1 1 0 0 0 0 0 0 0
2 2 2 2 3 3 4 3 3 3 4 4 4 4 3 3 3 3 3 3 2 2 3 3 3 2 2 2 2 2 1 0 0 0 0 0 0 0
2 2 2 2 2 3 4 4 3 3 4 5 5 5 4 3 3 3 3 2 2 2 3 4 4 3 2 2 2 1 1 0 0 0 0 0 0 0
1 2 2 2 2 2 3 4 4 4 4 4 5 5 5 4 3 3 3 2 2 3 4 5 5 4 2 2 1 1 1 0 0 0 0 0 0 0
1 1 2 2 1 1 2 3 4 5 5 6 5 5 5 4 4 4 3 3 3 3 4 5 5 4 2 1 1 1 0 0 0 0 0 0 0 0
1 1 1 1 1 0 1 2 3 5 7 8 8 7 6 6 5 4 4 4 4 4 5 5 4 3 2 1 1 0 0 0 0 0 0 0 0 0
1 1 1 1 0 0 0 1 2 5 8 10 11 10 9 8 7 6 5 4 4 5 5 5 4 3 2 1 1 0 0 0 0 0 0 0 0 0
1 1 1 0 0 0 0 1 2 5 9 11 12 11 10 9 8 7 6 5 5 4 4 5 4 3 2 2 1 0 0 0 0 0 0 0 0 0
0 0 0 0 0 0 0 1 2 4 7 9 11 10 10 9 8 7 6 6 5 4 4 4 3 3 2 2 1 1 0 0 0 1 1 1 1 1
0 0 0 0 0 0 0 0 1 2 4 5 7 8 9 8 7 6 6 5 5 4 3 3 2 2 1 1 1 1 1 1 1 1 1 1 1 1
0 0 0 0 0 0 0 0 1 1 2 3 4 6 7 7 6 6 5 4 4 4 3 2 2 1 1 1 1 1 1 1 1 0 0 1 1 1
0 0 0 0 0 0 0 0 0 1 1 2 2 4 5 5 5 5 4 4 3 3 2 2 2 2 1 1 1 1 0 0 0 0 0 0 0 0
0 0 0 0 0 0 0 0 0 0 1 1 2 2 3 3 4 3 3 3 2 2 1 1 1 1 1 1 1 1 0 0 0 0 0 0 0 0
0 0 0 0 0 0 0 0 1 1 1 1 1 2 2 3 3 2 2 1 1 1 1 1 1 0 0 0 0 0 0 0 0 0 0 0 0 0
0 0 0 0 0 1 1 1 1 1 1 1 1 2 2 2 2 1 1 0 0 0 0 0 0 0 0 0 0 0 0 0 0 0 0 0 0 0
0 0 0 0 1 1 2 2 2 1 1 1 1 1 2 2 2 1 0 0 0 0 0 0 0 0 0 0 0 0 0 0 0 0 0 0 0 0
Wind_Speed
1 1 1 1 1 1 1 1 2 2 3 3 2 2 2 2 3 3 3 6 8 9 8 8 8 8 8 8 7 7 7 7 8 8 9 10 11 11
1 1 1 1 1 1 1 1 2 2 3 3 3 3 2 2 2 2 3 6 6 7 7 8 8 8 8 7 7 7 7 7 8 8 8 8 9 11
1 1 2 1 1 1 1 1 1 1 3 4 2 2 1 2 2 1 2 2 3 5 6 7 7 7 7 7 7 7 7 8 8 8 8 8 8 9
3 2 2 2 2 2 1 2 2 2 2 4 3 2 2 2 2 2 2 2 2 3 4 5 6 7 7 7 7 7 8 8 8 9 9 8 8 9
3 3 3 3 3 2 2 2 2 2 2 3 4 2 2 2 1 2 2 2 2 2 3 4 5 5 6 7 7 7 8 8 8 8 9 9 9 9
3 4 4 3 3 3 3 3 3 2 2 2 3 2 2 2 1 1 2 2 2 2 2 3 3 4 5 6 6 7 7 7 8 8 8 8 9 9
3 3 4 4 4 3 3 3 2 2 2 2 3 2 3 2 2 1 2 2 2 1 1 2 1 2 3 4 5 6 6 6 7 8 8 8 8 8
3 4 4 4 4 5 5 4 4 3 3 2 3 3 4 3 2 2 1 1 2 1 1 2 1 2 2 2 3 5 6 6 7 8 8 8 8 9
3 3 4 3 3 3 5 5 5 5 5 4 4 5 4 3 2 2 2 2 4 3 1 3 2 2 3 3 4 5 5 5 6 7 8 8 9 9
4 4 4 4 4 3 3 4 4 4 5 4 5 5 4 3 3 3 4 3 3 2 2 2 2 3 3 3 4 5 5 5 5 6 6 8 8 9
4 3 4 4 5 4 3 4 5 5 5 5 5 5 5 5 3 1 1 1 3 3 2 2 2 2 2 3 3 5 5 5 5 5 5 6 7 7
4 4 5 5 6 5 3 3 5 6 4 4 4 4 4 4 4 4 3 3 2 3 3 2 2 1 2 2 2 2 2 4 4 5 5 6 6 4
3 3 4 6 6 6 5 4 7 6 3 3 3 3 3 3 3 3 3 4 4 4 3 2 2 2 2 2 2 2 2 2 2 3 4 5 6 6
4 3 4 6 6 6 4 6 7 5 2 2 3 3 3 3 3 3 4 4 5 6 4 3 3 3 2 2 3 2 2 1 1 2 2 3 5 7
3 5 6 6 5 4 5 6 4 2 2 3 3 4 4 4 3 2 3 3 3 4 3 3 3 3 3 3 3 2 2 2 2 2 2 2 3 3
3 4 5 5 4 4 4 3 3 3 3 4 4 4 3 2 2 2 2 2 2 3 4 3 4 4 3 4 3 3 2 2 2 2 2 2 2 3
1 2 2 2 2 2 2 3 2 2 2 3 2 3 2 2 2 2 2 2 2 3 3 2 2 2 4 3 3 3 3 2 3 2 2 2 3 3
1 1 2 2 3 3 3 3 2 3 3 2 2 3 3 3 3 2 2 2 3 3 3 2 1 1 1 2 4 4 3 3 2 2 2 2 3 3
1 2 2 3 3 3 3 3 3 3 2 2 2 2 2 2 2 2 2 2 2 3 3 2 1 2 2 3 4 3 3 3 2 2 2 3 4 4
1 2 3 3 3 3 3 3 3 2 2 2 2 2 2 2 2 2 2 2 2 2 2 2 2 2 3 4 3 3 4 3 2 2 3 2 2 3
1 2 2 2 2 2 2 2 2 2 2 2 2 2 2 2 2 2 2 3 2 2 2 3 3 3 2 0 1 3 3 3 4 3 3 2 2 2
2 2 2 2 2 2 2 2 2 2 1 1 2 2 2 2 2 2 2 2 2 2 3 3 2 1 0 1 3 3 3 3 3 3 3 4 3 3
2 2 2 2 2 2 2 2 1 1 1 2 2 2 2 2 2 2 3 3 2 2 2 2 2 1 1 1 2 2 3 3 2 2 3 4 4 5
Wind_Direction
257 263 272 283 267 246 219 192 189 263 285 281 285 277 260 241 248 236 234 232 231 230 228 228 230 229 230 232 235 233 233 233 235 235 233 231 230 227
276 306 298 283 291 298 247 229 199 200 252 270 265 281 283 284 270 243 242 245 238 235 231 231 231 229 230 230 233 233 232 232 233 232 231 231 231 228
265 245 268 273 285 295 282 262 254 209 245 277 272 286 299 305 307 274 261 247 249 245 237 233 231 232 232 229 229 230 232 231 230 229 229 228 227 224
249 251 266 272 278 276 278 274 265 244 226 265 282 285 273 274 283 282 282 271 261 262 252 243 240 239 235 233 232 231 234 233 230 227 225 221 221 222
246 246 254 257 272 277 276 279 275 279 241 246 271 275 270 287 305 298 296 282 277 281 276 263 253 249 242 240 235 233 234 234 231 225 222 219 218 220
247 246 247 243 249 263 276 276 271 271 264 262 273 282 276 277 281 283 303 289 281 290 295 285 277 261 249 247 241 237 234 232 231 227 223 219 217 216
262 259 256 254 252 249 261 257 260 263 267 264 270 279 281 284 276 261 270 277 274 251 281 284 283 286 267 251 243 240 234 231 229 225 221 219 218 218
265 274 273 264 271 274 275 271 253 243 250 249 260 266 271 263 257 256 263 290 290 269 217 271 261 276 276 257 252 241 235 232 225 219 216 216 217 217
256 267 278 275 274 275 284 289 282 274 250 227 240 251 256 253 243 264 259 247 253 245 220 266 257 266 271 262 247 240 239 233 224 218 217 217 218 217
253 246 246 263 273 269 273 280 277 276 265 249 237 246 249 246 225 232 243 258 269 261 196 242 258 262 275 266 255 241 238 235 228 222 220 219 217 216
266 253 239 250 269 270 261 275 285 286 284 283 273 266 269 270 259 240 261 255 276 268 224 217 252 271 273 268 267 253 243 237 235 231 225 220 213 207
278 275 267 262 265 255 239 250 272 277 286 298 292 287 273 268 261 217 212 226 248 262 235 211 240 246 288 276 274 276 258 250 247 242 234 226 213 198
271 276 273 281 276 267 245 236 250 262 270 269 273 276 275 266 258 248 225 214 226 246 233 196 219 218 220 266 276 267 257 253 245 247 241 233 212 193
256 265 272 283 284 281 262 257 263 263 262 267 273 273 268 266 264 257 249 241 237 241 243 203 208 211 211 243 263 265 269 255 234 247 243 231 220 211
258 273 282 285 289 286 273 265 259 243 238 252 262 265 261 259 261 260 266 262 267 262 255 223 216 223 206 217 233 236 257 263 231 232 232 222 213 203
279 294 297 295 286 275 278 275 251 233 227 239 252 264 274 275 266 254 254 262 272 281 272 250 233 217 224 232 217 233 227 225 236 236 230 238 227 209
277 310 310 308 305 297 285 274 262 253 248 246 247 258 264 265 265 257 241 242 244 261 278 285 269 242 225 211 220 229 227 234 231 221 214 238 240 227
152 268 282 279 273 272 272 273 265 255 248 244 245 247 252 255 264 267 253 240 248 252 255 254 256 342 340 291 228 222 234 236 243 228 205 222 252 247
167 258 268 267 266 264 258 254 254 253 245 241 244 250 255 258 260 263 256 250 252 258 265 256 223 203 241 281 282 229 216 232 228 236 229 222 236 249
250 259 275 277 269 268 266 261 257 258 248 244 246 250 247 249 261 263 258 254 255 261 273 278 251 226 226 245 260 270 234 210 211 232 246 247 255 266
285 278 272 276 277 272 267 265 255 250 251 251 253 253 254 249 260 268 270 275 263 252 258 266 262 264 257 248 278 287 279 245 221 221 224 236 258 259
291 294 291 282 278 280 276 262 251 255 259 261 267 264 260 262 262 270 272 271 263 258 266 278 288 291 227 228 256 270 286 298 283 269 246 222 205 210
285 286 290 296 290 290 292 296 284 262 259 265 264 261 260 262 259 263 267 266 264 268 278 284 297 297 269 232 248 271 286 295 304 311 307 299 264 243